Powrót do katalogu

NIMBUS 2 DEB

LostSSO
NORAD 40643·DEBRIS·🇺🇸 United States

Wystrzelony May 15, 1966 z Vandenberg Space Force Base

Loading…

Następne Przeloty (najbliższe 24 godziny)

TLE

NieaktualneSource: Space-Track

Epoka: Jul 23, 2015, 17:09 UTC

1 40643U 66040BG  15204.71474409  .00001365  00000-0  26821-2 0  9997
2 40643 100.4139 297.3936 0058702 252.2779 107.1932 13.37212767 95402

Śledź NIMBUS 2 DEB w czasie rzeczywistym z AllMySat

Download on the App Store